Regional Weather Roundup
Issued by NWS

Home | Current Version | Previous Version | Graphics & Text | Print | Product List | Glossary On
Versions: 1 2 3 4 5 6 7 8 9 10 11 12 13 14 15 16 17 18 19 20 21 22 23 24 25 26 27 28 29 30 31 32 33 34 35 36 37 38 39 40 41 42 43 44 45 46 47 48 49 50
000
ASUS43 KDMX 270803
RWRIA

WEATHER ROUNDUP FOR IOWA
NATIONAL WEATHER SERVICE DES MOINES IA
300 AM CDT FRI MAY 27 2016

NOTE: "FAIR" INDICATES FEW OR NO CLOUDS BELOW 12,000 FEET WITH NO
SIGNIFICANT WEATHER AND/OR OBSTRUCTIONS TO VISIBILITY.

* - THESE STATIONS ARE NOT NWS STATIONS...THUS NOT UNDER NWS
QUALITY CONTROL.  THEY ALSO DO NOT REPORT WEATHER SUCH
AS PRECIPITATION OR FOG.

IAZ001>003-012>014-020>022-031>034-043>046-270900-
   NORTHWEST IOWA

CITY           SKY/WX    TMP DP  RH WIND       PRES   REMARKS
CARROLL *      CLOUDY    63  59  88 N6        29.81S
CHEROKEE *     CLOUDY    58  58 100 CALM      29.81F
LE MARS *      CLOUDY    61  57  88 CALM      29.82S
ORANGE CITY *  PTCLDY    61  55  82 CALM      29.81F
SHELDON *      MOCLDY    59  59 100 CALM      29.80F
SIOUX CITY     CLOUDY    61  56  83 CALM      29.80S
SPENCER        CLOUDY    60  55  83 CALM      29.82S
STORM LAKE *   CLEAR     61  55  82 NE8       29.82S
$$

IAZ055>058-069>071-079>083-090>094-270900-
   SOUTHWEST IOWA

CITY           SKY/WX    TMP DP  RH WIND       PRES   REMARKS
ATLANTIC *     PTCLDY    63  57  82 S18       29.78S
AUDUBON *      PTCLDY    63  57  82 SW8       29.78R
CLARINDA *       N/A     63  59  88 MISG      29.83R
COUNCIL BLFS * MOCLDY    61  61 100 SW15      29.80F
CRESTON *      CLOUDY    63  57  82 S15G21    29.79R
HARLAN  *      CLOUDY    63  59  88 SW14      29.81F
LAMONI           N/A     60  59  96 SE6       29.79F
RED OAK *      CLOUDY    63  59  88 S13G21    29.83R FOG
SHENANDOAH *   LGT RAIN  63  63 100 SW8G14    29.84R
$$

IAZ047>049-059>061-072>074-084-270900-
   CENTRAL IOWA

CITY           SKY/WX    TMP DP  RH WIND       PRES   REMARKS
AMES           LGT RAIN  64  58  80 S9        29.81R
ANKENY *       CLOUDY    63  61  94 S3        29.80R
BOONE *        CLOUDY    64  57  77 W7G14     29.81R
CHARITON *     CLOUDY    63  59  88 S6        29.80R
DES MOINES     CLOUDY    64  59  83 SE8       29.79R
GRINNELL*      CLOUDY    63  59  88 SE7       29.82F
KNOXVILLE *    CLOUDY    63  59  88 SE7       29.79R
MARSHALLTOWN   CLOUDY    64  59  83 SE9       29.80F
NEWTON *       CLOUDY    63  63 100 SE9       29.80S
PELLA *        CLOUDY    62  60  94 SE7       29.81S
PERRY *        CLOUDY    64  61  88 S9        29.79R
$$

IAZ004>006-015-016-023>025-035-036-270900-
   NORTH CENTRAL IOWA

CITY           SKY/WX    TMP DP  RH WIND       PRES   REMARKS
ALGONA *       CLOUDY    64  57  77 S9        29.84R
CLARION *      CLOUDY    63  59  88 E8        29.85R
ESTHERVILLE    CLOUDY    58  57  97 E7        29.82F
FORT DODGE *   CLOUDY    63  54  72 CALM      29.83R
MASON CITY     CLOUDY    61  58  90 CALM      29.87R
FOREST CITY *  CLOUDY    61  55  82 E8        29.84R
WEBSTER CITY * CLOUDY    63  59  88 CALM      29.83R
IOWA FALLS *   CLOUDY    66  57  72 E6        29.85R
$$

IAZ007>011-017>019-026>030-037>042-050>054-066-270900-
   NORTHEAST IOWA

CITY           SKY/WX    TMP DP  RH WIND       PRES   REMARKS
CEDAR RAPIDS   LGT RAIN  62  62 100 E6        29.84F
CHARLES CITY * CLOUDY    63  61  94 E3        29.86R
CLINTON *      CLOUDY    68  63  84 SW20      29.89R
DECORAH *      DRIZZLE   64  59  82 N7        29.84F
DUBUQUE        CLOUDY    66  61  84 N7        29.86S
MONTICELLO *   CLOUDY    68  59  73 SW13G24   29.86R
OELWEIN *      CLOUDY    64  61  88 N3        29.85F
WATERLOO       CLOUDY    63  60  90 NE6       29.82F
$$

IAZ064-065-067-068-078-270900-
   EAST CENTRAL IOWA

CITY           SKY/WX    TMP DP  RH WIND       PRES   REMARKS
DAVENPORT      HVY RAIN  66  59  78 SW20G29   29.92R
IOWA CITY      LGT RAIN  64  61  90 E8        29.85F
MT. PLEASANT * CLOUDY    64  64 100 E10       29.87R
MUSCATINE *    LGT RAIN  64  63  94 SE7       29.90R
QUAD CITIES    HVY RAIN  65  60  84 S18G31    29.96R
$$

IAZ062-063-075>077-085>089-095>099-270900-
   SOUTHEAST IOWA

CITY           SKY/WX    TMP DP  RH WIND       PRES   REMARKS
BURLINGTON     LGT RAIN  63  63 100 E13       29.85F
FAIRFIELD *      N/A    N/A N/A N/A MISG        N/A
FORT MADISON * MOCLDY    63  63 100 E6        29.86F
KEOKUK *       CLOUDY    64  63  94 E6        29.84F
OSKALOOSA *      N/A     61  59  94 SE7       29.82F
OTTUMWA        MOCLDY    61  60  97 S6        29.83F
WASHINGTON *   CLOUDY    63  63 100 E10       29.85F
$$

ABBREVIATIONS USED IN REMARKS
   TC - TEMPERATURES IN CELSIUS
  WCI - WIND CHILL INDEX
   HX - HEAT INDEX
  VSB - VISIBILITY
$$





USA.gov is the U.S. government's official web portal to all federal, state and local government web resources and services.